Location: Newark
(43.0000°N, 1.6781°W)
Time: 09:38:24
(UTC+00:00)

Explorer 7 - Pass Details

Date: 22 April 2021
Orbit: 484 x 677 km, 50.3° (Epoch: 07 May)

Event Time Altitude Azimuth Distance (km) Brightness Sun altitude
Rises 01:38:51 0° 297° (WNW) 2,845 - -30.8°
Reaches altitude 10° 01:41:08 10° 292° (WNW) 1,972 - -30.6°
Maximum altitude 01:45:29 47° 219° (SW) 845 - -30.2°
Drops below altitude 10° 01:50:03 10° 145° (SE) 2,061 - -29.8°
Sets 01:52:30 0° 140° (SE) 2,988 - -29.6°
